GALAXY 33 (G-33)

Last updated on Sun Jun 21 2026 00:03:09 GMT+0000 (Coordinated Universal Time)

1 54026U 22128A 26171.39489199 .00000075 00000+0 00000+0 0 9991 2 54026 0.0225 55.3005 0001741 30.1498 192.3075 1.00270656 13776
UTC large
Height (km)
Speed (km/s)
/
Latitude / Longitude
Inclination (degrees)
Orbital Period (minutes)
Azimuth
Elevation
Range (km)
Doppler Factor

Next 0 passes for location: London (51.5072 / 0.1276)

No passes found over London.
GALAXY 33 (G-33)